Regional Weather Roundup
Issued by NWS San Angelo, TX

Home | Current Version | Previous Version | Text Only | Print | Product List | Glossary On
Versions: 1 2 3 4 5 6 7 8 9 10 11 12 13 14 15 16 17 18 19 20 21 22 23 24 25 26 27 28 29 30 31 32 33 34 35 36 37 38 39 40 41 42 43 44 45 46 47 48 49 50
000
ASUS44 KSJT 281810
RWRSJT
WEST CENTRAL TEXAS REGIONAL WEATHER ROUNDUP
NATIONAL WEATHER SERVICE SAN ANGELO TX
100 PM CDT WED JUN 28 2017

NOTE: "FAIR" INDICATES FEW OR NO CLOUDS BELOW 12,000 FEET WITH NO
SIGNIFICANT WEATHER AND/OR OBSTRUCTIONS TO VISIBILITY.

TXZ049-054-064>066-071>073-076>078-098-099-113-114-127-128-139-140-
154-155-168>170-281900
...LOCATIONS ACROSS WEST CENTRAL TEXAS...

CITY           SKY/WX    TMP DP  RH WIND       PRES   REMARKS
SAN ANGELO     SUNNY     89  64  43 SE13G18   29.92F
ABILENE        SUNNY     87  65  47 S14G23    29.92F
DYESS AFB      SUNNY     89  68  49 S14       29.90F
JUNCTION       SUNNY     86  66  51 SE10      29.95F
SWEETWATER     SUNNY     88  62  41 S18G25    29.95S
BROWNWOOD      MOSUNNY   84  68  58 SE14      29.95S
COLEMAN        CLEAR     87  64  47 S10G16    29.95S
SONORA         MOSUNNY   88  64  45 S9G16     29.99S
OZONA            N/A     86  61  42 S14G21    29.98S
BRADY          NOT AVBL
$$

TEXAS PANHANDLE/OKLAHOMA PANHANDLE

CITY           SKY/WX    TMP DP  RH WIND       PRES   REMARKS
AMARILLO       SUNNY     90  60  36 SW15G24   29.88F
BORGER         SUNNY     92  58  31 SW10G22   29.84F
CANADIAN       SUNNY     92  65  41 S21G31    29.81S
DALHART        SUNNY     88  54  31 VRB5      29.90S
DUMAS          CLEAR     87  56  34 W5        29.87F
GUYMON         NOT AVBL
HEREFORD       CLEAR     91  58  32 SW14      29.90F
PAMPA          CLEAR     93  58  30 S23       29.86F
PERRYTON       SUNNY     94  56  27 SW20G29   29.81S
$$

SOUTHERN PANHANDLE/SOUTH PLAINS/ROLLING PLAINS

CITY           SKY/WX    TMP DP  RH WIND       PRES   REMARKS
LUBBOCK        MOSUNNY   90  59  35 S20G28    29.91S
SNYDER         SUNNY     87  64  45 S15G23    29.91F
CHILDRESS      SUNNY     93  59  31 S21G31    29.85F
SEMINOLE       CLEAR     90  59  35 S14       29.93F
$$

PERMIAN BASIN

CITY           SKY/WX    TMP DP  RH WIND       PRES   REMARKS
MIDLAND        SUNNY     86  64  47 S16       29.92F
ODESSA         SUNNY     88  63  43 S15       29.93F
WINK           SUNNY     93  59  31 S10G21    29.88F
$$

FAR WEST/SOUTHWEST MOUNTAINS/TRANS PECOS

CITY           SKY/WX    TMP DP  RH WIND       PRES   REMARKS
ALPINE         CLEAR     91  52  26 S8        30.07F
DRYDEN           N/A     86  66  51 SE10      29.93F
EL PASO        MOSUNNY   95  31  10 W13G23    29.98F
FORT STOCKTON  SUNNY     94  55  26 VRB6      29.91F
GUADALUPE PASS NOT AVBL
MARFA          SUNNY     88  55  32 W12G18    30.07F
PECOS          CLEAR     96  56  25 SE6       29.86F
$$

DALLAS/FORT WORTH METROPLEX

CITY           SKY/WX    TMP DP  RH WIND       PRES   REMARKS
DFW AIRPORT    MOSUNNY   87  71  58 SE10      29.93S
FTW MEACHAM    PTSUNNY   87  71  58 SE10      29.93S
DAL-EXECUTIVE  MOSUNNY   84  70  62 SE17      29.94S
GRAND PRAIRIE  MOSUNNY   84  66  54 S9        29.95F
ADDISON        PTSUNNY   84  70  61 S10G20    29.95S
MESQUITE       MOCLDY    84  68  58 SE9G16    29.96S
LANCASTER      PTCLDY    85  69  59 SE13      29.96S
$$

NORTH CENTRAL TEXAS

CITY           SKY/WX    TMP DP  RH WIND       PRES   REMARKS
SHRMAN/DENISON MOCLDY    84  69  60 S14       29.96S
GAINESVILLE    MOSUNNY   84  70  61 S9        29.96S
BRIDGEPORT     PTCLDY    85  67  54 S8G17     29.95S
DENTON         MOSUNNY   86  71  60 SE15      29.94S
WAXAHACHIE     CLOUDY    85  71  62 SE12      29.96F
GRANBURY       MOCLDY    86  68  54 S10       29.95S
$$

WESTERN NORTH TEXAS

CITY           SKY/WX    TMP DP  RH WIND       PRES   REMARKS
WICHITA FALLS  SUNNY     87  67  51 S21       29.87F
VERNON         CLEAR     91  57  30 S20G25    29.86F
BRECKENRIDGE   CLEAR     87  66  49 SE16      29.91F
COMANCHE       PTSUNNY   83  69  64 S13       29.97S
$$

CENTRAL AND SOUTH CENTRAL TEXAS

CITY           SKY/WX    TMP DP  RH WIND       PRES   REMARKS
AUSTIN/BERGSTM MOSUNNY   88  70  55 E10       29.92F
WACO           PTSUNNY   84  71  65 S9        29.94F
HILLSBORO      MOCLDY    85  71  63 S9        29.95F
TEMPLE         PTSUNNY   87  69  54 E12G18    29.95S
KILLEEN-GRAY   PTSUNNY   83  69  61 E12       29.94F
FORT HOOD      PTSUNNY   83  70  63 S5        29.92F
GEORGETOWN     PTSUNNY   84  68  58 E6        29.94S
LAGO VISTA     CLOUDY    85  69  60 CALM      29.97S
SAN MARCOS     PTSUNNY   86  72  62 E8        29.94F
NEW BRAUNFELS  PTSUNNY   87  70  56 VRB3      29.91F
RANDOLPH AFB   PTSUNNY   87  72  60 E5        29.93S
SAN ANTONIO    PTSUNNY   84  69  60 VRB6      29.94S
STINSON        PTSUNNY   89  70  53 N6        29.91S
PLEASANTON     NOT AVBL
LA GRANGE      CLOUDY    86  74  66 E7        29.90F
GIDDINGS       MOCLDY    86  69  56 E7        29.93F
$$

EAST TEXAS

CITY           SKY/WX    TMP DP  RH WIND       PRES   REMARKS
PARIS            N/A     85  72  65 SE10      29.97F
CLARKSVILLE    NOT AVBL
TYLER          PTSUNNY   86  70  58 SE10G16   29.97S
LONGVIEW       MOSUNNY   86  69  56 E9        29.97F
PALESTINE      PTCLDY    87  71  58 SE9       29.97S
NACOGDOCHES    PTSUNNY   84  72  65 SE10      29.95F
$$

TEXAS HILL COUNTRY AND EDWARDS PLATEAU

CITY           SKY/WX    TMP DP  RH WIND       PRES   REMARKS
LLANO          PTCLDY    82  70  65 SE5       29.99F
HORSESHOE BAY  MOCLDY    86  68  55 MISG      29.96S
KERRVILLE      PTSUNNY   82  70  66 SE6       29.98R
FREDERICKSBRG  CLOUDY    81  65  59 SE5       29.98S
ROCKSPRINGS    CLEAR     82  70  65 S10       30.01S
HONDO          CLOUDY    86  69  56 E9        29.94S
UVALDE         MOCLDY    84  69  60 CALM      29.94S
DEL RIO        MOSUNNY   85  68  56 SE13      29.91F
$$

SOUTHEAST TEXAS

CITY           SKY/WX    TMP DP  RH WIND       PRES   REMARKS
COLLEGE STN    PTSUNNY   84  73  69 E9G17     29.93S
CALDWELL       NOT AVBL
CROCKETT       PTCLDY    86  72  62 SE10      29.98S
BRENHAM        PTSUNNY   87  73  63 SE13      29.92F
HUNTSVILLE     MOSUNNY   88  70  55 E6        29.95S
CONROE         MOSUNNY   85  72  65 SE10      29.93F
HOUSTON BUSH   MOSUNNY   85  71  63 E14       29.92F
HOUSTON HOBBY  MOSUNNY   87  73  62 E10G20    29.90F
PERLAND        MOSUNNY   88  74  63 E13       29.92F
WHARTON        PTCLDY    88  72  58 NE10G16   29.90S
$$

THE UPPER TEXAS COAST

CITY           SKY/WX    TMP DP  RH WIND       PRES   REMARKS
ORANGE         MOCLDY    80  76  85 E8G17     29.97S FOG
PORT ARTHUR    LGT RAIN N/A N/A N/A MISG      29.93F
GALVESTON      CLOUDY    80  78  94 E14       29.92S
ANGLETON       CLOUDY    85  75  72 E12       29.89F
BAY CITY       RAIN      78  75  90 E5        29.89S
$$

TEXAS COASTAL BEND, RIO GRANDE PLAINS DEEP SOUTH TEXAS

CITY           SKY/WX    TMP DP  RH WIND       PRES   REMARKS
VICTORIA       PTSUNNY   87  74  64 NE7       29.89S
BEEVILLE       FAIR      89  73  58 NE3       29.89F
ROCKPORT       SUNNY     87  75  67 E9        29.87F
PORT ARANSAS   CLOUDY    83  74  73 E8        29.88S
PORT LAVACA    MOCLDY    84  78  83 CALM      29.88F
CORPUS CHRISTI MOSUNNY   93  74  53 VRB7      29.87F
KINGSVILLE NAS PTSUNNY   89  75  63 NE8       29.87F
COTULLA        PTSUNNY   84  69  60 CALM      29.91F
LAREDO         MOSUNNY   89  71  55 VRB5      29.91F
BROWNSVILLE    MOSUNNY   88  78  72 SE15      29.86F
PORT ISABEL    PTSUNNY   83  77  82 E13       29.87S
HEBBRONVILLE   PTCLDY    83  70  63 E7        29.91F
MCALLEN        PTSUNNY   94  72  48 VRB3      29.86F
WESLACO        MOSUNNY   91  73  55 CALM      29.85F
FALFURRIAS     CLOUDY    85  73  67 NW3       29.87F
EDINBURG       MOCLDY    93  69  46 E3        29.86F
$$




USA.gov is the U.S. government's official web portal to all federal, state and local government web resources and services.